Regional Weather Roundup
Issued by NWS

Home | Current Version | Previous Version | Text Only | Print | Product List | Glossary On
Versions: 1 2 3 4 5 6 7 8 9 10 11 12 13 14 15 16 17 18 19 20 21 22 23 24 25 26 27 28 29 30 31 32 33 34 35 36 37 38 39 40 41 42 43 44 45 46 47 48 49
000
ASCA42 TJSJ 301010
RWRPR
PUERTO RICO/U.S. VIRGIN ISLANDS HOURLY WEATHER ROUNDUP
NATIONAL WEATHER SERVICE SAN JUAN PR
600 AM AST SUN AUG 30 2015

PRZ001-004-301100-
PUERTO RICO

CITY           SKY/WX    TMP DP  RH WIND       PRES   REMARKS
SAN JUAN LMM   TSTM      79  75  89 E12G22    29.99R FOG
$$

PRZ006-007-301100-
U.S. VIRGIN ISLANDS

CITY           SKY/WX    TMP DP  RH WIND       PRES   REMARKS
CHARLOTTE AMA  CLEAR     82  79  89 E7        29.98R HX  93
CHRISTIANSTED  PTCLDY    81  79  94 E12       29.97S
$$

HOURLY WEATHER ROUNDUP FOR THE NEWS MEDIA

CITY           SKY/WX    TMP DP  RH WIND       PRES   REMARKS
ORLANDO        CLOUDY    76  76 100 NE5       29.98S
NEW YORK       PTCLDY    70  63  78 SW7       30.10S
NEWARK         PTCLDY    68  62  81 SW5       30.09S
CHICAGO        CLOUDY    65  63  93 N5        30.03R FOG
HARTFORD       CLEAR     61  60  97 S5        30.07S
BOSTON         MOCLDY    69  62  78 SW10      30.05S
DALLAS         MOCLDY    80  65  59 SW5       29.96R
PHILADELPHIA   PTCLDY    71  63  75 SW6       30.11S
LOS ANGELES    FAIR      72  67  84 SE5       29.86S
WASHINGTON DC  PTCLDY    64  62  93 CALM      30.10S



USA.gov is the U.S. government's official web portal to all federal, state and local government web resources and services.